Regional Weather Roundup
Issued by NWS Charleston, SC

Current Version | Previous Version | Graphics & Text | Print | Product List | Glossary On
Versions: 1 2 3 4 5 6 7 8 9 10 11 12 13 14 15 16 17 18 19 20 21 22 23 24 25 26 27 28 29 30 31 32 33 34 35 36 37 38 39 40 41 42 43 44 45 46 47 48 49 50
000
ASUS42 KCHS 292212
RWRCHS

REGIONAL WEATHER ROUNDUP
NATIONAL WEATHER SERVICE CHARLESTON SC
600 PM EDT SAT AUG 29 2015

NOTE: "FAIR" INDICATES FEW OR NO CLOUDS BELOW 12,000 FEET WITH NO
SIGNIFICANT WEATHER AND/OR OBSTRUCTIONS TO VISIBILITY.

NOT ALL STATIONS ARE QUALITY CONTROLLED BY THE NATIONAL
WEATHER SERVICE. USE DATA WITH CAUTION...ESPECIALLY
DEWPOINT OBSERVATIONS.

SCZ027-030-031-034>040-042>050-292300-
...SOUTHEAST SOUTH CAROLINA...

CITY           SKY/WX    TMP DP  RH WIND       PRES   REMARKS
N CHARLESTON   PTSUNNY   83  67  58 NE9       30.10F
WATERFRONT PRK   N/A     82  73  74 N7        30.07F
MOUNT PLEASANT FAIR      82  73  74 CALM      30.10F
JOHNS ISLAND   CLOUDY    82  72  69 NE6       30.09F
PINOPOLIS        N/A     84  63  48 NE8       30.02F
MONCKS CORNER  FAIR      84  61  45 E6        30.10F
SUMMERVILLE    FAIR      84  61  45 NE5       30.11F
BEAUFORT MCAS  MOSUNNY   82  70  66 E7        30.10S
BEAUFORT ARPT  FAIR      81  72  74 NE8       30.09F
HILTON HEAD IS MOSUNNY   81  72  74 N6        30.11S
WALTERBORO     CLEAR     86  61  42 NE7       30.11F
ALLENDALE      FAIR      82  59  44 CALM      30.10F

...SOUTHERN MIDLANDS AND PEE DEE...

CITY           SKY/WX    TMP DP  RH WIND       PRES   REMARKS
GEORGETOWN     NOT AVBL
KINGSTREE      NOT AVBL
ORANGEBURG     MOSUNNY   84  53  34 E8        30.11F
BARNWELL       FAIR      84  61  45 E5        30.12S
AIKEN          FAIR      82  50  32 E7        30.15F
MANNING        FAIR      84  54  34 NE7       30.11F
COLUMBIA       PTSUNNY   87  52  29 E10       30.11S
SUMTER         PTSUNNY   84  56  37 E8        30.10S
FLORENCE       MOSUNNY   85  57  38 NE7       30.11F
MYRTLE BEACH   MOSUNNY   84  66  54 NE9       30.12F
N MYRTLE BEACH PTSUNNY   84  68  58 N5        30.10F

$$

GAZ063-065-086>088-099>101-113>116-118-119-134>141-150-292300-
...SOUTHEAST GEORGIA...

CITY           SKY/WX    TMP DP  RH WIND       PRES   REMARKS
SAVANNAH ARPT  PTSUNNY   82  70  66 E9        30.09F
HUNTER AAF     PTSUNNY   81  74  81 NE7       30.07F
FORT STEWART   PTSUNNY   81  71  71 E6        30.07S
STATESBORO     PTSUNNY   82  71  68 SE5       30.10R
SYLVANIA       PTCLDY    82  71  70 E7        30.11S
CLAXTON        NOT AVBL

...CSRA...CENTRAL AND FAR SOUTHEAST GEORGIA...

CITY           SKY/WX    TMP DP  RH WIND       PRES   REMARKS
THOMSON        CLOUDY    85  61  45 E3        30.16S
AUGUSTA-BUSH   CLOUDY    82  61  48 E5        30.09F
AUGUSTA-DANIEL CLOUDY    84  58  40 SE7       30.12F
SWAINSBORO     MOCLDY    84  68  58 E5        30.11S
VIDALIA        CLOUDY    79  73  83 CALM      30.09S
EASTMAN        LGT RAIN  78  78 100 CALM      30.12S
HAZLEHURST     LGT RAIN  76  76 100 W3        30.08F
ALMA           CLOUDY    77  74  90 NW7       30.09R
WAYCROSS       TSTM      82  77  83 N6        30.07R HX  91
JESUP          FAIR      84  75  74 E9        30.07F HX  92
BAXLEY         PTSUNNY   82  72  69 E12       30.07F
BRUNSWICK      CLOUDY    81  73  78 NE16      30.08S
SAINT SIMONS   CLOUDY    80  74  81 NE14G21   30.07S

$$

SCZ027-028-034-036>038-045-046-048>050-GAZ119-141-292300-
...LAKE AND SUPPLEMENTAL COASTAL OBSERVATIONS...

STATION/POSITION TIME  TEMP    WIND        PRES    WAVE   SWELL
                       AIR SEA DIR/SP/G            HT/PER HT/PER/DIR
                 (UTC) (F)     (DEG/KT/KT) (MB)    (FT/S) (FT/S/D)
UPR LAKE MARION  NOT AVBL
WINYAH BAY       NOT AVBL
LAKE MURRAY      2100   84      60/  3/ 10 1019.0F
ACE BASIN NERRS  NOT AVBL
FORT PULASKI     NOT AVBL
SAPELO ISLAND    2100   80      40/ 12     1018.0F

$$

ANZ835-935-AMZ111-154-330-350-352-354-370-450-454-472-292300-
...C-MAN AND BUOY OBSERVATIONS...

STATION/POSITION TIME  TEMP    WIND        PRES    WAVE   SWELL
                       AIR SEA DIR/SP/G            HT/PER HT/PER/DIR
                 (UTC) (F)     (DEG/KT/KT) (MB)    (FT/S) (FT/S/D)
BUOY 41004       2150   80 85   40/ 12/ 14 1018.6F   4/ 9   3/ 9
BUOY 41008       2150   80 85   70/ 16/ 19 1018.5S   4/11   2/110/11
FOLLY BEACH CMAN 2100   81      70/ 11/ 13 1019.6F
CAPERS NEARSHORE 2108   81      80/ 14/ 17 1019.5F
FRIPP NEARSHORE  2100   80      60/ 12/ 16 1018.7F


STATION/POSITION TIME  TEMP    WIND        PRES    WAVE   SWELL
                       AIR SEA DIR/SP/G            HT/PER HT/PER/DIR
                 (UTC) (F)     (DEG/KT/KT) (MB)    (FT/S) (FT/S/D)
5E ST. MARYS GA  2121      86                N/A     3/11   2/100/11
FRYING PAN BUOY  2150   81 81   40/ 16/ 17 1019.2F   4/ 5   2/130/11
BUOY 41025       2150   78 82   20/ 21/ 23 1018.3F   5/11   3/ 90/11
CAPE LOOKOUT NC  2100   79      40/ 16/ 19 1019.2F
BUOY 41002       2150   83 84   CALM  /  2 1019.1S   5/11   5/140/11
BUOY 41010       2120   83 85  120/ 14/ 17 1017.2F
ST AUGUSTINE FL  2200   82 87   60/ 10/ 11 1018.1F


$$



USA.gov is the U.S. government's official web portal to all federal, state and local government web resources and services.